| time (UTC) | temp C | wind direction | speed KPH | gust KPH | rain 1hr cm | rain 24hr cm | rain mn cm | humidity % | barometer mb |
| 20260505124601 | 3 | 358 | 3.2 | 9.7 | 0.00 | 0.00 | 0.00 | 61 | 1019.7 |
| 20260505123156 | 3 | 37 | 4.8 | 9.7 | 0.00 | 0.00 | 0.00 | 61 | 1019.6 |
| 20260505121554 | 3 | 41 | 4.8 | 12.9 | 0.00 | 0.00 | 0.00 | 61 | 1019.5 |
| 20260505120105 | 3 | 62 | 3.2 | 12.9 | 0.00 | 0.00 | 0.00 | 60 | 1019.5 |
| 20260505114547 | 3 | 47 | 3.2 | 8.0 | 0.00 | 0.00 | 0.00 | 57 | 1019.4 |
| 20260505113048 | 4 | 86 | 1.6 | 3.2 | 0.00 | 0.00 | 0.00 | 56 | 1019.3 |
| 20260505111547 | 4 | 65 | 1.6 | 3.2 | 0.00 | 0.00 | 0.00 | 55 | 1019.3 |
| 20260505101537 | 5 | 56 | 3.2 | 9.7 | 0.00 | 0.00 | 0.00 | 52 | 1019.0 |
| 20260505100036 | 5 | 54 | 3.2 | 9.7 | 0.00 | 0.00 | 0.00 | 52 | 1018.8 |
| 20260505094534 | 5 | 48 | 4.8 | 9.7 | 0.00 | 0.00 | 0.00 | 53 | 1018.8 |
| 20260505093045 | 5 | 30 | 3.2 | 6.4 | 0.00 | 0.00 | 0.00 | 54 | 1018.7 |
| 20260505091531 | 5 | 4 | 1.6 | 4.8 | 0.00 | 0.00 | 0.00 | 53 | 1018.6 |
| 20260505090032 | 5 | 4 | 1.6 | 4.8 | 0.00 | 0.00 | 0.00 | 52 | 1018.6 |
| 20260505084531 | 5 | 3 | 1.6 | 6.4 | 0.00 | 0.00 | 0.00 | 52 | 1018.6 |
| 20260505083028 | 5 | 21 | 0.0 | 4.8 | 0.00 | 0.00 | 0.00 | 53 | 1018.7 |
| 20260505081527 | 4 | 320 | 0.0 | 3.2 | 0.00 | 0.00 | 0.00 | 51 | 1018.7 |
| 20260505080029 | 4 | 302 | 0.0 | 1.6 | 0.00 | 0.00 | 0.00 | 51 | 1018.7 |
| 20260505074524 | 4 | 302 | 1.6 | 4.8 | 0.00 | 0.00 | 0.00 | 53 | 1018.7 |
| 20260505073021 | 4 | 103 | 0.0 | 1.6 | 0.00 | 0.00 | 0.00 | 49 | 1018.6 |
| 20260505071519 | 4 | 103 | 1.6 | 3.2 | 0.00 | 0.00 | 0.00 | 49 | 1018.5 |
| 20260505070023 | 5 | 65 | 3.2 | 8.0 | 0.00 | 0.00 | 0.00 | 51 | 1018.6 |
| 20260505064514 | 5 | 71 | 9.7 | 16.1 | 0.00 | 0.00 | 0.00 | 50 | 1018.4 |
| 20260505063011 | 5 | 73 | 6.4 | 16.1 | 0.00 | 0.00 | 0.00 | 50 | 1018.2 |
| 20260505061512 | 5 | 63 | 6.4 | 14.5 | 0.00 | 0.00 | 0.00 | 48 | 1018.1 |
| 20260505060005 | 5 | 94 | 6.4 | 14.5 | 0.00 | 0.00 | 0.00 | 48 | 1018.1 |
| 20260505054503 | 5 | 91 | 9.7 | 14.5 | 0.00 | 0.00 | 0.00 | 48 | 1018.0 |
| 20260505053003 | 5 | 81 | 8.0 | 16.1 | 0.00 | 0.00 | 0.00 | 48 | 1017.8 |
| 20260505051600 | 5 | 60 | 9.7 | 17.7 | 0.00 | 0.00 | 0.00 | 48 | 1017.8 |
| 20260505041556 | 6 | 99 | 14.5 | 24.1 | 0.00 | 0.00 | 0.00 | 45 | 1017.5 |
| 20260505040059 | 6 | 62 | 12.9 | 22.5 | 0.00 | 0.00 | 0.00 | 43 | 1017.5 |
| 20260505034546 | 6 | 72 | 14.5 | 24.1 | 0.00 | 0.00 | 0.00 | 44 | 1017.3 |
| 20260505033043 | 6 | 98 | 9.7 | 20.9 | 0.00 | 0.00 | 0.00 | 42 | 1017.1 |
| 20260505031549 | 7 | 63 | 12.9 | 25.7 | 0.00 | 0.00 | 0.00 | 41 | 1017.0 |
| 20260505030040 | 8 | 57 | 16.1 | 25.7 | 0.00 | 0.00 | 0.00 | 38 | 1016.6 |
| 20260505024534 | 8 | 56 | 16.1 | 25.7 | 0.00 | 0.00 | 0.00 | 36 | 1016.5 |
| 20260505023033 | 10 | 76 | 14.5 | 27.4 | 0.00 | 0.00 | 0.00 | 28 | 1016.3 |
| 20260505021536 | 10 | 54 | 17.7 | 27.4 | 0.00 | 0.00 | 0.00 | 26 | 1016.1 |
| 20260505020039 | 11 | 58 | 20.9 | 32.2 | 0.00 | 0.00 | 0.00 | 24 | 1015.8 |
| 20260505014531 | 11 | 58 | 25.7 | 32.2 | 0.00 | 0.00 | 0.00 | 22 | 1015.7 |
| 20260505013030 | 12 | 24 | 24.1 | 38.6 | 0.00 | 0.00 | 0.00 | 22 | 1015.6 |
| 20260505011529 | 12 | 1 | 20.9 | 29.0 | 0.00 | 0.00 | 0.00 | 21 | 1015.6 |
| 20260505010028 | 12 | 20 | 19.3 | 37.0 | 0.00 | 0.00 | 0.00 | 20 | 1015.6 |
| 20260505004529 | 12 | 351 | 16.1 | 29.0 | 0.00 | 0.00 | 0.00 | 27 | 1015.7 |
| 20260505003027 | 12 | 345 | 24.1 | 38.6 | 0.00 | 0.00 | 0.00 | 25 | 1015.7 |
| 20260505001526 | 13 | 352 | 29.0 | 41.8 | 0.00 | 0.00 | 0.00 | 22 | 1015.7 |
| 20260505000039 | 13 | 30 | 32.2 | 43.5 | 0.00 | 0.00 | 0.00 | 22 | 1015.6 |
| 20260504234527 | 12 | 360 | 25.7 | 38.6 | 0.00 | 0.00 | 0.00 | 23 | 1015.8 |
| 20260504233023 | 12 | 16 | 17.7 | 45.1 | 0.00 | 0.00 | 0.00 | 23 | 1015.8 |
| 20260504231522 | 13 | 27 | 30.6 | 40.2 | 0.00 | 0.00 | 0.00 | 25 | 1015.8 |
| 20260504230020 | 12 | 340 | 19.3 | 33.8 | 0.00 | 0.00 | 0.00 | 31 | 1015.8 |
| 20260504224520 | 12 | 335 | 16.1 | 24.1 | 0.00 | 0.00 | 0.00 | 32 | 1015.7 |
| 20260504223019 | 12 | 30 | 25.7 | 41.8 | 0.00 | 0.00 | 0.00 | 30 | 1015.9 |
| 20260504221525 | 12 | 19 | 20.9 | 35.4 | 0.00 | 0.00 | 0.00 | 31 | 1015.9 |
| 20260504220033 | 12 | 20 | 24.1 | 33.8 | 0.00 | 0.00 | 0.00 | 31 | 1015.9 |
| 20260504214516 | 12 | 16 | 19.3 | 32.2 | 0.00 | 0.00 | 0.00 | 32 | 1015.8 |
| 20260504213016 | 12 | 20 | 29.0 | 37.0 | 0.00 | 0.00 | 0.00 | 30 | 1015.9 |
| 20260504211515 | 12 | 39 | 29.0 | 41.8 | 0.00 | 0.00 | 0.00 | 30 | 1015.9 |
| 20260504210013 | 13 | 8 | 25.7 | 35.4 | 0.00 | 0.00 | 0.00 | 29 | 1015.9 |
| 20260504204514 | 12 | 7 | 27.4 | 46.7 | 0.00 | 0.00 | 0.00 | 30 | 1015.8 |
| 20260504203012 | 12 | 34 | 24.1 | 35.4 | 0.00 | 0.00 | 0.00 | 30 | 1015.8 |
| 20260504201512 | 12 | 351 | 16.1 | 40.2 | 0.00 | 0.00 | 0.00 | 33 | 1015.8 |
| 20260504200010 | 12 | 349 | 20.9 | 37.0 | 0.00 | 0.00 | 0.00 | 33 | 1015.7 |
| 20260504194509 | 12 | 335 | 22.5 | 33.8 | 0.00 | 0.00 | 0.00 | 34 | 1015.7 |
| 20260504193009 | 12 | 347 | 27.4 | 38.6 | 0.00 | 0.00 | 0.00 | 31 | 1015.8 |
| 20260504191508 | 13 | 20 | 22.5 | 33.8 | 0.00 | 0.00 | 0.00 | 32 | 1015.8 |
| 20260504190011 | 12 | 18 | 24.1 | 40.2 | 0.00 | 0.00 | 0.00 | 31 | 1015.9 |
| 20260504184507 | 13 | 315 | 19.3 | 40.2 | 0.00 | 0.00 | 0.00 | 32 | 1016.0 |
| 20260504183005 | 13 | 327 | 20.9 | 41.8 | 0.00 | 0.00 | 0.00 | 33 | 1015.9 |
| 20260504181503 | 12 | 346 | 19.3 | 41.8 | 0.00 | 0.00 | 0.00 | 35 | 1016.0 |
| 20260504180002 | 12 | 10 | 22.5 | 38.6 | 0.00 | 0.00 | 0.00 | 34 | 1016.1 |
| 20260504174600 | 12 | 338 | 19.3 | 43.5 | 0.00 | 0.00 | 0.00 | 36 | 1016.1 |
| 20260504173058 | 12 | 12 | 19.3 | 40.2 | 0.00 | 0.00 | 0.00 | 36 | 1016.1 |
| 20260504171556 | 12 | 328 | 19.3 | 25.7 | 0.00 | 0.00 | 0.00 | 39 | 1016.1 |